Flag Weather past 2 weeks in Taiohae, Marquesas Islands, French Polynesia

Now
89 °F

Passing clouds.


Feels Like: 95 °F
Forecast: 76 / 83 °F
Wind: 7 mph from South

Location: Atuona

Current Time: Nov 25, 2014 at 2:59:32 PM

Latest Report: Nov 25, 2014 at 1:30 PM


Visibility: 38 mi

Pressure: 29.77 "Hg

Humidity: 54%

Dew point: 71 °F

Location of TaiohaeLocation

Historic Weather in Taiohae — Graph

°F

Taiohae temperature yesterday

Maximum temperature yesterday: 89 °F (at 12:30 PM)
Minimum temperature yesterday: 73 °F (at 3:30 AM)
Average temperature yesterday: 81 °F

Past Weeks' High & Low Weather Summary

 TemperatureHumidityPressure
High96 °F (Nov 19, 12:30 PM)95% (Nov 20, 6:30 AM)29.95 "Hg (Nov 20, 6:30 AM)
Low72 °F (Nov 11, 4:30 AM)43% (Nov 18, 12:30 PM)29.73 "Hg (Nov 22, 2:30 PM)
Average81 °F73%29.86 "Hg
* Reported Nov 10 1:30 PM — Nov 25 1:30 PM, Taiohae, Weather by CustomWeather, © 2014

Note: Actual official high and low records may vary slightly from our data, if they occured in-between our weather recording intervals... More about our weather records

Advertising

Taiohae weather history for previous 24 hours

 ConditionsComfort  
Time TempWeatherWind HumidityBarometerVisibility
1:30 PM
Nov 25
89 °FPassing clouds.7 mph54%29.77 "Hg37 mi
12:30 PM88 °FPassing clouds.7 mph56%29.79 "Hg37 mi
11:30 AM90 °FPassing clouds.7 mph52%29.82 "Hg37 mi
10:30 AM90 °FPassing clouds.6 mph51%29.84 "Hg37 mi
9:30 AM91 °FPassing clouds.6 mph50%29.86 "Hg37 mi
8:30 AM88 °FPassing clouds.7 mph58%29.87 "Hg37 mi
7:30 AM85 °FWarm.3 mph61%29.87 "HgN/A
6:30 AM79 °FWarm.5 mph78%29.85 "HgN/A
5:30 AM74 °FPassing clouds.1 mph83%29.84 "Hg37 mi
4:30 AM73 °FMild.No wind85%29.82 "HgN/A
3:30 AM74 °FMild.5 mph85%29.81 "HgN/A
2:30 AM74 °FMild.3 mph86%29.80 "HgN/A
1:30 AM74 °FMild.2 mph85%29.80 "HgN/A
12:30 AM75 °FMild.2 mph84%29.82 "HgN/A
11:30 PM
Nov 24
76 °FMild.3 mph83%29.83 "HgN/A
10:30 PM76 °FMild.1 mph80%29.85 "HgN/A
9:30 PM77 °FMild.1 mph79%29.86 "HgN/A
8:30 PM77 °FWarm.1 mph78%29.86 "HgN/A
7:30 PM79 °FWarm.5 mph74%29.83 "HgN/A
6:30 PM80 °FWarm.7 mph72%29.81 "HgN/A
5:30 PM81 °FWarm.12 mph70%29.78 "HgN/A
4:30 PM83 °FScattered clouds.10 mph64%29.76 "Hg22 mi
3:30 PM86 °FPartly sunny.13 mph56%29.74 "Hg25 mi
2:30 PM87 °FPartly sunny.13 mph55%29.75 "Hg25 mi
Weather by CustomWeather, © 2014

See weather overviewHow to use our weather pages